Cadjehoun Airport

Jump to: basic info | weather | frequencies | runways | comments

Related pages: nearby airports | nearby navaids | notams | map

Basic information (top)

Codes: COO DBBB
Location: lon 6.357230, lat 2.384350, elev 19 ft / 6 m msl
Status: medium_airport
Scheduled airline service: yes
Links: Wikipedia Mobile

Weather (top)

Current conditions (rec'd 2014/12/19 00:00Z):

DBBB 190000Z 20007KT 6000 FEW012 28/27 Q1011 NOSIG

Airport forecast (rec'd 2014/12/18 00:00Z):

TAF DBBB 182300Z 1900/2006 22010KT 6000 FEW013 
      BECMG 1902/1904 32002KT 
      TEMPO 1904/1909 3000 BR BKN008 
      BECMG 1908/1910 22010KT 
      BECMG 2002/2004 32002KT

Frequencies (top)

Verify before use: may be inaccurate or out of date.

A/G: 658.6 MHz (A/G VOICE RDO)
APP: 125.9 MHz (APP)
TWR: 125.9 MHz (TWR)

Runways (top)

06/24: 7,874 x 148 ft (2,400 x 45 m) — paved — lighted — threshold 06 displaced 125 ft (38 m)

Latest comments (top)

No comments yet for Cadjehoun Airport

More... (top)

See also NOTAMs and nearby airports and navaids, or visit the Cadjehoun Airport page at the main OurAirports website..